Location: Czekanka
(50.4925°N, 19.2643°E)
Time: 02:07:57
(UTC+00:00)

CZ-2C R/B - Pass Details

Date: 22 September 2024
Orbit: 703 x 903 km, 98.2° (Epoch: 09 October)

Event Time Altitude Azimuth Distance (km) Brightness Sun altitude
Rises 23:05:12 0° 25° (NNE) 3,540 7.3 -39.3°
Reaches altitude 10° 23:08:32 10° 45° (NE) 2,592 6.2 -39.2°
Enters shadow 23:10:48 16° 67° (ENE) 2,179 5.6 -39.1°
